DLH3EK ENGM-EDDF

Flight info

Callsign DLH3EK
Flight time 1h 42m
Altitude 35000
Route VIPPA DCT RAXLU DCT RIMET/N0445F310 T157 KOKEB/N0403F230 T157 KERAX KERAX5A
Aircraft A320/M-SDE3FGHIRWY/LB1

Departure

Time 2026-05-07 17:05
Airport Oslo-Gardermoen International Airport (ENGM)

Arrival

Time 2026-05-07 18:47
Airport Frankfurt Main Airport (EDDF)
Time Latitude Longitude Altitude Speed Heading
2026-05-07 16:23 60.19719 11.10243 685 ft 0 kts 286°
2026-05-07 16:56 60.19715 11.10273 679 ft 4 kts 286°
2026-05-07 16:56 60.19707 11.10324 681 ft 3 kts 286°
2026-05-07 16:56 60.19706 11.10330 681 ft 0 kts 286°
2026-05-07 16:59 60.19716 11.10327 683 ft 2 kts
2026-05-07 16:59 60.19729 11.10372 681 ft 5 kts 77°
2026-05-07 17:00 60.19721 11.10455 685 ft 7 kts 81°
2026-05-07 17:00 60.19768 11.10509 680 ft 9 kts 13°
2026-05-07 17:00 60.19842 11.10549 682 ft 13 kts 16°
2026-05-07 17:00 60.19922 11.10598 682 ft 12 kts 26°
2026-05-07 17:01 60.19943 11.10737 684 ft 10 kts 104°
2026-05-07 17:01 60.19919 11.10898 682 ft 15 kts 106°
2026-05-07 17:01 60.19889 11.11106 683 ft 16 kts 106°
2026-05-07 17:01 60.19858 11.11322 682 ft 17 kts 106°
2026-05-07 17:02 60.19862 11.11527 680 ft 14 kts 40°
2026-05-07 17:02 60.19953 11.11589 683 ft 14 kts 16°
2026-05-07 17:02 60.20045 11.11642 684 ft 14 kts 16°
2026-05-07 17:02 60.20140 11.11698 681 ft 14 kts 20°
2026-05-07 17:03 60.20167 11.11857 684 ft 14 kts 107°
2026-05-07 17:03 60.20143 11.12016 688 ft 9 kts 107°
2026-05-07 17:03 60.20126 11.12116 683 ft 9 kts 115°
2026-05-07 17:03 60.20079 11.12203 686 ft 9 kts 159°
2026-05-07 17:04 60.20023 11.12192 689 ft 8 kts 196°
2026-05-07 17:04 60.19934 11.12140 688 ft 35 kts 196°
2026-05-07 17:04 60.19449 11.11860 683 ft 106 kts 196°
2026-05-07 17:04 60.18557 11.11339 680 ft 158 kts 197°
2026-05-07 17:05 60.17437 11.10632 1109 ft 171 kts 198°
2026-05-07 17:05 60.16292 11.09927 1840 ft 173 kts 198°
2026-05-07 17:05 60.15117 11.09231 2408 ft 184 kts 196°
2026-05-07 17:05 60.13814 11.08495 2699 ft 206 kts 196°
2026-05-07 17:06 60.12335 11.07996 3031 ft 227 kts 187°
2026-05-07 17:06 60.10706 11.07655 3432 ft 250 kts 187°
2026-05-07 17:06 60.08935 11.07284 4151 ft 260 kts 186°
2026-05-07 17:06 60.07121 11.06898 5051 ft 264 kts 186°
2026-05-07 17:07 60.05306 11.06253 5928 ft 267 kts 199°
2026-05-07 17:07 60.03550 11.04991 6812 ft 270 kts 200°
2026-05-07 17:07 60.01774 11.03702 7652 ft 273 kts 201°
2026-05-07 17:07 59.99980 11.02398 8495 ft 276 kts 202°
2026-05-07 17:08 59.98160 11.01073 9334 ft 280 kts 202°
2026-05-07 17:08 59.96346 10.99758 10171 ft 282 kts 202°
2026-05-07 17:08 59.94452 10.98385 10605 ft 300 kts 202°
2026-05-07 17:08 59.92416 10.96899 10825 ft 323 kts 202°
2026-05-07 17:09 59.90249 10.95263 11182 ft 339 kts 203°
2026-05-07 17:09 59.88033 10.93548 11837 ft 344 kts 204°
2026-05-07 17:09 59.85794 10.91800 12571 ft 347 kts 204°
2026-05-07 17:09 59.83537 10.90029 13319 ft 350 kts 204°
2026-05-07 17:10 59.81293 10.88275 14024 ft 353 kts 204°
2026-05-07 17:10 59.78998 10.86498 14659 ft 356 kts 205°
2026-05-07 17:10 59.76677 10.84712 15280 ft 359 kts 205°
2026-05-07 17:10 59.74333 10.82912 15896 ft 363 kts 205°
2026-05-07 17:11 59.71968 10.81114 16477 ft 366 kts 205°
2026-05-07 17:11 59.69578 10.79298 17062 ft 370 kts 205°
2026-05-07 17:11 59.67163 10.77461 17648 ft 373 kts 205°
2026-05-07 17:11 59.64731 10.75604 18225 ft 377 kts 205°
2026-05-07 17:12 59.62276 10.73727 18733 ft 380 kts 206°
2026-05-07 17:12 59.59802 10.71838 19228 ft 383 kts 206°
2026-05-07 17:12 59.57311 10.69938 19722 ft 385 kts 206°
2026-05-07 17:12 59.54835 10.68058 20215 ft 388 kts 206°
2026-05-07 17:13 59.52312 10.66141 20690 ft 390 kts 206°
2026-05-07 17:13 59.49771 10.64200 21173 ft 393 kts 206°
2026-05-07 17:13 59.47215 10.62239 21654 ft 395 kts 206°
2026-05-07 17:13 59.44642 10.60270 22081 ft 398 kts 206°
2026-05-07 17:14 59.42047 10.58300 22524 ft 401 kts 206°
2026-05-07 17:14 59.39432 10.56326 22972 ft 404 kts 206°
2026-05-07 17:14 59.36800 10.54345 23415 ft 407 kts 206°
2026-05-07 17:14 59.34186 10.52385 23815 ft 409 kts 206°
2026-05-07 17:15 59.31517 10.50392 24173 ft 412 kts 206°
2026-05-07 17:15 59.28834 10.48392 24532 ft 414 kts 206°
2026-05-07 17:15 59.26136 10.46381 24884 ft 416 kts 206°
2026-05-07 17:15 59.23356 10.44671 25218 ft 425 kts 195°
2026-05-07 17:16 59.20369 10.44239 25553 ft 434 kts 187°
2026-05-07 17:16 59.17341 10.44093 25858 ft 436 kts 186°
2026-05-07 17:16 59.14297 10.43974 26200 ft 439 kts 186°
2026-05-07 17:16 59.11237 10.43860 26535 ft 441 kts 186°
2026-05-07 17:17 59.08161 10.43746 26864 ft 443 kts 186°
2026-05-07 17:17 59.05073 10.43628 27195 ft 445 kts 186°
2026-05-07 17:17 59.02008 10.43505 27509 ft 447 kts 186°
2026-05-07 17:17 58.98888 10.43375 27816 ft 449 kts 186°
2026-05-07 17:18 58.95756 10.43243 28110 ft 452 kts 186°
2026-05-07 17:18 58.92608 10.43112 28402 ft 454 kts 186°
2026-05-07 17:18 58.89445 10.42978 28654 ft 456 kts 186°
2026-05-07 17:18 58.86272 10.42841 28949 ft 457 kts 186°
2026-05-07 17:19 58.83082 10.42702 29226 ft 459 kts 186°
2026-05-07 17:19 58.79885 10.42562 29488 ft 461 kts 186°
2026-05-07 17:19 58.76669 10.42423 29788 ft 462 kts 186°
2026-05-07 17:19 58.73500 10.42301 30171 ft 462 kts 186°
2026-05-07 17:20 58.70291 10.42196 30503 ft 461 kts 186°
2026-05-07 17:20 58.67084 10.42101 30821 ft 461 kts 186°
2026-05-07 17:20 58.63882 10.42000 31129 ft 460 kts 186°
2026-05-07 17:20 58.60680 10.41878 31422 ft 460 kts 186°
2026-05-07 17:21 58.57483 10.41742 31715 ft 459 kts 186°
2026-05-07 17:21 58.54289 10.41598 32024 ft 459 kts 186°
2026-05-07 17:21 58.51098 10.41456 32334 ft 459 kts 186°
2026-05-07 17:21 58.47907 10.41323 32639 ft 459 kts 185°
2026-05-07 17:22 58.44758 10.41203 32940 ft 458 kts 185°
2026-05-07 17:22 58.41570 10.41083 33254 ft 458 kts 185°
2026-05-07 17:22 58.38387 10.40959 33554 ft 458 kts 185°
2026-05-07 17:22 58.35203 10.40833 33866 ft 457 kts 185°
2026-05-07 17:23 58.32025 10.40700 34166 ft 457 kts 185°
2026-05-07 17:23 58.28846 10.40568 34438 ft 456 kts 185°
2026-05-07 17:23 58.25675 10.40438 34719 ft 455 kts 185°
2026-05-07 17:23 58.22512 10.40306 35001 ft 454 kts 185°
2026-05-07 17:24 58.19394 10.40171 35114 ft 455 kts 185°
2026-05-07 17:24 58.16230 10.40039 35136 ft 455 kts 185°
2026-05-07 17:24 58.09898 10.39777 35133 ft 455 kts 185°
2026-05-07 17:25 58.03573 10.39480 35125 ft 455 kts 185°
2026-05-07 17:25 57.97294 10.39202 35134 ft 454 kts 185°
2026-05-07 17:26 57.90970 10.38946 35137 ft 454 kts 185°
2026-05-07 17:26 57.84650 10.38700 35137 ft 454 kts 185°
2026-05-07 17:27 57.78325 10.38448 35132 ft 455 kts 185°
2026-05-07 17:27 57.72040 10.38212 35122 ft 455 kts 184°
2026-05-07 17:28 57.65712 10.37973 35125 ft 455 kts 184°
2026-05-07 17:28 57.59382 10.37730 35129 ft 455 kts 184°
2026-05-07 17:29 57.53055 10.37482 35137 ft 455 kts 184°
2026-05-07 17:29 57.46729 10.37229 35123 ft 455 kts 184°
2026-05-07 17:30 57.40445 10.36976 35127 ft 455 kts 184°
2026-05-07 17:30 57.34121 10.36733 35130 ft 454 kts 184°
2026-05-07 17:31 57.27800 10.36497 35129 ft 454 kts 184°
2026-05-07 17:31 57.21476 10.36264 35121 ft 454 kts 183°
2026-05-07 17:32 57.15198 10.36032 35126 ft 454 kts 183°
2026-05-07 17:32 57.08873 10.35794 35127 ft 455 kts 183°
2026-05-07 17:33 57.02543 10.35560 35125 ft 455 kts 183°
2026-05-07 17:33 56.96218 10.35310 35134 ft 455 kts 183°
2026-05-07 17:34 56.89933 10.35070 35129 ft 455 kts 182°
2026-05-07 17:34 56.83609 10.34837 35128 ft 455 kts 183°
2026-05-07 17:35 56.77286 10.34596 35135 ft 454 kts 183°
2026-05-07 17:35 56.70965 10.34360 35128 ft 454 kts 182°
2026-05-07 17:36 56.64695 10.34127 35121 ft 454 kts 182°
2026-05-07 17:36 56.58377 10.33890 35109 ft 454 kts 182°
2026-05-07 17:37 56.52060 10.33659 35123 ft 454 kts 182°
2026-05-07 17:37 56.45737 10.33418 35130 ft 454 kts 182°
2026-05-07 17:38 56.39459 10.33196 35126 ft 454 kts 182°
2026-05-07 17:38 56.33134 10.32970 35125 ft 455 kts 182°
2026-05-07 17:39 56.26808 10.32738 35125 ft 455 kts 182°
2026-05-07 17:39 56.20482 10.32506 35110 ft 455 kts 182°
2026-05-07 17:40 56.14147 10.32276 35110 ft 455 kts 181°
2026-05-07 17:40 56.07811 10.32046 35114 ft 456 kts 181°
2026-05-07 17:41 56.01514 10.31814 35119 ft 456 kts 181°
2026-05-07 17:41 55.95171 10.31598 35122 ft 456 kts 181°
2026-05-07 17:42 55.88829 10.31385 35125 ft 456 kts 181°
2026-05-07 17:42 55.82485 10.31161 35125 ft 456 kts 181°
2026-05-07 17:43 55.76139 10.30928 35126 ft 456 kts 181°
2026-05-07 17:43 55.69835 10.30696 35129 ft 456 kts 181°
2026-05-07 17:44 55.63487 10.30483 35133 ft 456 kts 181°
2026-05-07 17:44 55.57136 10.30272 35135 ft 456 kts 181°
2026-05-07 17:45 55.50788 10.30042 35136 ft 456 kts 181°
2026-05-07 17:45 55.44482 10.29819 35137 ft 456 kts 181°
2026-05-07 17:46 55.38133 10.29597 35141 ft 456 kts 181°
2026-05-07 17:46 55.31786 10.29387 35144 ft 456 kts 181°
2026-05-07 17:47 55.25441 10.29170 35138 ft 456 kts 181°
2026-05-07 17:47 55.19137 10.28954 35136 ft 456 kts 181°
2026-05-07 17:48 55.12794 10.28732 35139 ft 456 kts 181°
2026-05-07 17:48 55.06447 10.28514 35145 ft 456 kts 180°
2026-05-07 17:49 55.00104 10.28295 35137 ft 456 kts 180°
2026-05-07 17:49 54.93805 10.28065 35135 ft 456 kts 180°
2026-05-07 17:50 54.87467 10.27851 35133 ft 456 kts 180°
2026-05-07 17:50 54.81126 10.27649 35135 ft 456 kts 180°
2026-05-07 17:51 54.74781 10.27451 35134 ft 456 kts 180°
2026-05-07 17:51 54.68507 10.27234 35135 ft 456 kts 180°
2026-05-07 17:52 54.62123 10.27112 35134 ft 456 kts 179°
2026-05-07 17:52 54.55775 10.27045 35142 ft 456 kts 179°
2026-05-07 17:53 54.49428 10.26965 35143 ft 456 kts 179°
2026-05-07 17:53 54.43088 10.26844 35145 ft 455 kts 179°
2026-05-07 17:54 54.36797 10.26721 35143 ft 455 kts 179°
2026-05-07 17:54 54.30469 10.26616 35145 ft 455 kts 179°
2026-05-07 17:55 54.24149 10.26518 35138 ft 454 kts 179°
2026-05-07 17:55 54.17834 10.26415 35133 ft 453 kts 179°
2026-05-07 17:56 54.11571 10.26307 35123 ft 453 kts 179°
2026-05-07 17:56 54.05262 10.26201 35118 ft 453 kts 180°
2026-05-07 17:57 54.00026 10.26112 35127 ft 452 kts 179°
2026-05-07 17:57 53.92670 10.25988 35127 ft 452 kts 179°
2026-05-07 17:58 53.86382 10.25883 35119 ft 452 kts 180°
2026-05-07 17:58 53.80142 10.25780 35112 ft 451 kts 180°
2026-05-07 17:59 53.73873 10.25678 35126 ft 450 kts 181°
2026-05-07 17:59 53.67621 10.25574 35126 ft 449 kts 181°
2026-05-07 18:00 53.61387 10.25471 35122 ft 448 kts 181°
2026-05-07 18:00 53.55157 10.25374 35118 ft 448 kts 181°
2026-05-07 18:01 53.48971 10.25260 35115 ft 447 kts 181°
2026-05-07 18:01 53.42748 10.25164 35107 ft 447 kts 181°
2026-05-07 18:02 53.33419 10.25013 35101 ft 447 kts 181°
2026-05-07 18:03 53.27239 10.24915 35092 ft 447 kts 181°
2026-05-07 18:03 53.21019 10.24825 35092 ft 447 kts 181°
2026-05-07 18:04 53.14797 10.24714 35095 ft 448 kts 181°
2026-05-07 18:04 53.08559 10.24608 35092 ft 449 kts 181°
2026-05-07 18:05 53.02312 10.24512 35096 ft 449 kts 181°
2026-05-07 18:05 52.96106 10.24414 35099 ft 449 kts 181°
2026-05-07 18:06 52.89857 10.24306 35100 ft 449 kts 181°
2026-05-07 18:06 52.83605 10.24207 35100 ft 449 kts 181°
2026-05-07 18:07 52.77357 10.24126 35092 ft 449 kts 181°
2026-05-07 18:07 52.71148 10.24035 35089 ft 449 kts 181°
2026-05-07 18:08 52.64898 10.23927 35093 ft 449 kts 181°
2026-05-07 18:08 52.58651 10.23824 35093 ft 449 kts 181°
2026-05-07 18:09 52.52401 10.23739 35090 ft 449 kts 181°
2026-05-07 18:09 52.46191 10.23691 35088 ft 449 kts 181°
2026-05-07 18:10 52.39933 10.23623 35083 ft 450 kts 181°
2026-05-07 18:10 52.33677 10.23512 35081 ft 450 kts 181°
2026-05-07 18:11 52.27413 10.23395 35076 ft 450 kts 181°
2026-05-07 18:11 52.21186 10.23300 35078 ft 451 kts 181°
2026-05-07 18:12 52.14913 10.23214 35087 ft 451 kts 181°
2026-05-07 18:12 52.08634 10.23120 35095 ft 451 kts 181°
2026-05-07 18:13 52.02354 10.23023 35092 ft 451 kts 181°
2026-05-07 18:13 51.96115 10.22932 35088 ft 451 kts 181°
2026-05-07 18:13 51.92989 10.22872 34836 ft 448 kts 181°
2026-05-07 18:14 51.89874 10.22805 34361 ft 448 kts 181°
2026-05-07 18:14 51.86749 10.22737 33830 ft 450 kts 181°
2026-05-07 18:14 51.83617 10.22668 33241 ft 451 kts 181°
2026-05-07 18:14 51.80474 10.22607 32688 ft 452 kts 181°
2026-05-07 18:15 51.77325 10.22558 32398 ft 454 kts 181°
2026-05-07 18:15 51.74158 10.22514 31866 ft 455 kts 181°
2026-05-07 18:15 51.71036 10.22472 31337 ft 455 kts 181°
2026-05-07 18:15 51.67868 10.22428 30805 ft 455 kts 181°
2026-05-07 18:16 51.64701 10.22378 30279 ft 456 kts 181°
2026-05-07 18:16 51.61530 10.22329 29692 ft 456 kts 181°
2026-05-07 18:16 51.58370 10.22281 29086 ft 452 kts 181°
2026-05-07 18:16 51.55243 10.22240 28520 ft 447 kts 181°
2026-05-07 18:17 51.52142 10.22197 27966 ft 444 kts 181°
2026-05-07 18:17 51.49069 10.22155 27428 ft 440 kts 181°
2026-05-07 18:17 51.46021 10.22109 26900 ft 436 kts 182°
2026-05-07 18:17 51.42995 10.22060 26422 ft 433 kts 182°
2026-05-07 18:18 51.39989 10.22012 25989 ft 431 kts 182°
2026-05-07 18:18 51.37043 10.21968 25568 ft 428 kts 182°
2026-05-07 18:18 51.34075 10.21926 25146 ft 425 kts 181°
2026-05-07 18:18 51.31125 10.21880 24895 ft 423 kts 182°
2026-05-07 18:19 51.28185 10.21822 24656 ft 422 kts 182°
2026-05-07 18:19 51.25255 10.21756 24409 ft 420 kts 182°
2026-05-07 18:19 51.22336 10.21689 24177 ft 419 kts 182°
2026-05-07 18:19 51.19424 10.21623 24050 ft 417 kts 182°
2026-05-07 18:20 51.16517 10.21560 24082 ft 418 kts 182°
2026-05-07 18:20 51.13609 10.21504 24083 ft 418 kts 182°
2026-05-07 18:20 51.10704 10.21362 24076 ft 417 kts 188°
2026-05-07 18:20 51.07945 10.20253 24080 ft 415 kts 204°
2026-05-07 18:21 51.05472 10.17953 24081 ft 413 kts 220°
2026-05-07 18:21 51.03336 10.14907 24082 ft 413 kts 223°
2026-05-07 18:21 51.01231 10.11812 24084 ft 413 kts 224°
2026-05-07 18:21 50.99129 10.08707 24081 ft 413 kts 224°
2026-05-07 18:22 50.97028 10.05599 24079 ft 413 kts 224°
2026-05-07 18:22 50.95637 10.03543 24080 ft 413 kts 224°
2026-05-07 18:22 50.92823 9.99397 24083 ft 413 kts 224°
2026-05-07 18:22 50.90717 9.96304 24049 ft 414 kts 223°
2026-05-07 18:23 50.88611 9.93216 23805 ft 412 kts 223°
2026-05-07 18:23 50.86539 9.90186 23558 ft 410 kts 223°
2026-05-07 18:23 50.84440 9.87127 23279 ft 410 kts 223°
2026-05-07 18:23 50.82344 9.84079 22998 ft 409 kts 224°
2026-05-07 18:24 50.80255 9.81044 22729 ft 407 kts 224°
2026-05-07 18:24 50.78175 9.78022 22457 ft 405 kts 224°
2026-05-07 18:24 50.76121 9.75037 21962 ft 398 kts 224°
2026-05-07 18:24 50.74094 9.72096 21461 ft 393 kts 224°
2026-05-07 18:25 50.72097 9.69200 20966 ft 388 kts 224°
2026-05-07 18:25 50.70118 9.66341 20496 ft 383 kts 223°
2026-05-07 18:25 50.68191 9.63567 20041 ft 379 kts 223°
2026-05-07 18:25 50.66255 9.60783 19598 ft 377 kts 223°
2026-05-07 18:26 50.64297 9.57965 19144 ft 384 kts 224°
2026-05-07 18:26 50.62325 9.55123 18670 ft 384 kts 224°
2026-05-07 18:26 50.60361 9.52292 18169 ft 382 kts 224°
2026-05-07 18:26 50.58409 9.49482 17663 ft 379 kts 224°
2026-05-07 18:27 50.56469 9.46697 17178 ft 377 kts 224°
2026-05-07 18:27 50.54538 9.43931 16689 ft 374 kts 223°
2026-05-07 18:27 50.52615 9.41186 16181 ft 372 kts 223°
2026-05-07 18:27 50.51347 9.39377 15848 ft 371 kts 223°
2026-05-07 18:28 50.48828 9.35785 15165 ft 368 kts 223°
2026-05-07 18:28 50.46939 9.33092 14668 ft 366 kts 223°
2026-05-07 18:28 50.45061 9.30416 14143 ft 364 kts 223°
2026-05-07 18:28 50.43191 9.27752 13612 ft 362 kts 223°
2026-05-07 18:29 50.41308 9.25151 13157 ft 358 kts 218°
2026-05-07 18:29 50.39260 9.23029 12974 ft 347 kts 213°
2026-05-07 18:29 50.37250 9.21083 12841 ft 334 kts 213°
2026-05-07 18:29 50.35311 9.19206 12707 ft 322 kts 213°
2026-05-07 18:30 50.33438 9.17391 12573 ft 311 kts 213°
2026-05-07 18:30 50.31629 9.15635 12435 ft 301 kts 213°
2026-05-07 18:30 50.29873 9.13895 12170 ft 296 kts 217°
2026-05-07 18:30 50.28339 9.11841 11898 ft 293 kts 227°
2026-05-07 18:31 50.27059 9.09389 11648 ft 290 kts 237°
2026-05-07 18:31 50.26080 9.06649 11389 ft 288 kts 247°
2026-05-07 18:31 50.25370 9.03735 11137 ft 287 kts 251°
2026-05-07 18:31 50.24688 9.00808 10885 ft 286 kts 251°
2026-05-07 18:32 50.24006 8.97895 10642 ft 285 kts 251°
2026-05-07 18:32 50.23325 8.94989 10403 ft 284 kts 251°
2026-05-07 18:32 50.22645 8.92090 10162 ft 283 kts 251°
2026-05-07 18:32 50.21968 8.89204 10055 ft 283 kts 251°
2026-05-07 18:33 50.21298 8.86357 10060 ft 283 kts 251°
2026-05-07 18:33 50.20617 8.83469 10060 ft 284 kts 251°
2026-05-07 18:33 50.19935 8.80579 10062 ft 284 kts 251°
2026-05-07 18:33 50.19253 8.77694 10060 ft 284 kts 251°
2026-05-07 18:34 50.18567 8.74805 10058 ft 284 kts 250°
2026-05-07 18:34 50.17880 8.71924 10057 ft 283 kts 251°
2026-05-07 18:34 50.17197 8.69040 10063 ft 284 kts 251°
2026-05-07 18:34 50.16516 8.66159 10059 ft 284 kts 251°
2026-05-07 18:35 50.15829 8.63272 10059 ft 284 kts 250°
2026-05-07 18:35 50.15141 8.60388 10057 ft 284 kts 250°
2026-05-07 18:35 50.14462 8.57549 10060 ft 284 kts 250°
2026-05-07 18:35 50.13772 8.54666 10055 ft 284 kts 250°
2026-05-07 18:36 50.13082 8.51788 10058 ft 284 kts 250°
2026-05-07 18:36 50.12392 8.48903 10057 ft 284 kts 250°
2026-05-07 18:36 50.11706 8.46034 9901 ft 282 kts 250°
2026-05-07 18:36 50.11022 8.43177 9494 ft 281 kts 250°
2026-05-07 18:37 50.10341 8.40343 9109 ft 279 kts 250°
2026-05-07 18:37 50.09660 8.37518 8722 ft 277 kts 250°
2026-05-07 18:37 50.08982 8.34717 8347 ft 276 kts 250°
2026-05-07 18:37 50.08305 8.31934 7972 ft 274 kts 250°
2026-05-07 18:38 50.07632 8.29169 7600 ft 272 kts 250°
2026-05-07 18:38 50.06973 8.26465 7228 ft 270 kts 250°
2026-05-07 18:38 50.06309 8.23734 6850 ft 269 kts 249°
2026-05-07 18:38 50.05650 8.21024 6490 ft 267 kts 250°
2026-05-07 18:39 50.04993 8.18336 6106 ft 266 kts 250°
2026-05-07 18:39 50.04336 8.15646 5843 ft 266 kts 250°
2026-05-07 18:39 50.03679 8.12956 5586 ft 266 kts 250°
2026-05-07 18:39 50.02945 8.10359 5329 ft 260 kts 238°
2026-05-07 18:40 50.01651 8.08491 5097 ft 253 kts 207°
2026-05-07 18:40 49.99989 8.07937 5008 ft 242 kts 175°
2026-05-07 18:40 49.98900 8.08230 5010 ft 240 kts 166°
2026-05-07 18:40 49.97284 8.08911 5016 ft 241 kts 164°
2026-05-07 18:41 49.95437 8.10612 5012 ft 230 kts 123°
2026-05-07 18:41 49.94964 8.12845 5012 ft 213 kts 86°
2026-05-07 18:41 49.95295 8.14969 5035 ft 194 kts 67°
2026-05-07 18:41 49.95764 8.16874 4979 ft 186 kts 67°
2026-05-07 18:42 49.96074 8.18134 4851 ft 184 kts 67°
2026-05-07 18:42 49.96519 8.19954 4617 ft 182 kts 67°
2026-05-07 18:42 49.96965 8.21785 4358 ft 181 kts 67°
2026-05-07 18:42 49.97408 8.23610 4101 ft 180 kts 67°
2026-05-07 18:43 49.97848 8.25427 3852 ft 179 kts 67°
2026-05-07 18:43 49.98287 8.27235 3586 ft 178 kts 67°
2026-05-07 18:43 49.98723 8.29034 3326 ft 177 kts 67°
2026-05-07 18:43 49.99156 8.30824 3070 ft 176 kts 67°
2026-05-07 18:44 49.99585 8.32597 2816 ft 175 kts 68°
2026-05-07 18:44 50.00011 8.34358 2559 ft 174 kts 67°
2026-05-07 18:44 50.00432 8.36100 2319 ft 171 kts 68°
2026-05-07 18:44 50.00848 8.37824 2066 ft 170 kts 68°
2026-05-07 18:45 50.01233 8.39424 1828 ft 152 kts 68°
2026-05-07 18:45 50.01589 8.40904 1614 ft 142 kts 68°
2026-05-07 18:45 50.01930 8.42321 1412 ft 139 kts 68°
2026-05-07 18:45 50.02266 8.43714 1204 ft 137 kts 69°
2026-05-07 18:46 50.02596 8.45099 1005 ft 136 kts 69°
2026-05-07 18:46 50.02930 8.46468 786 ft 135 kts 69°
2026-05-07 18:46 50.03253 8.47830 586 ft 133 kts 70°
2026-05-07 18:46 50.03567 8.49171 404 ft 131 kts 67°
2026-05-07 18:47 50.03890 8.50472 322 ft 120 kts 69°
2026-05-07 18:47 50.04099 8.51349 328 ft 56 kts 69°
2026-05-07 18:47 50.04221 8.51855 333 ft 45 kts 69°
2026-05-07 18:47 50.04318 8.52267 353 ft 37 kts 70°
2026-05-07 18:48 50.04389 8.52613 346 ft 31 kts 80°
2026-05-07 18:48 50.04379 8.52923 352 ft 26 kts 100°
2026-05-07 18:48 50.04352 8.53188 361 ft 23 kts 95°
2026-05-07 18:48 50.04376 8.53403 373 ft 18 kts 71°
2026-05-07 18:49 50.04401 8.53579 375 ft 17 kts 84°
2026-05-07 18:49 50.04413 8.53770 375 ft 19 kts 84°
2026-05-07 18:49 50.04426 8.53979 375 ft 20 kts 84°
2026-05-07 18:49 50.04441 8.54204 375 ft 21 kts 84°
2026-05-07 18:50 50.04453 8.54433 371 ft 22 kts 92°
2026-05-07 18:50 50.04408 8.54651 364 ft 22 kts 124°
2026-05-07 18:50 50.04300 8.54778 357 ft 20 kts 158°
2026-05-07 18:50 50.04189 8.54843 356 ft 13 kts 160°
2026-05-07 18:51 50.04105 8.54891 354 ft 11 kts 159°
2026-05-07 18:51 50.04072 8.54910 359 ft 2 kts 159°
2026-05-07 18:51 50.04049 8.54925 353 ft 10 kts 153°
2026-05-07 18:51 50.04025 8.55038 359 ft 12 kts 79°
2026-05-07 18:52 50.04061 8.55192 360 ft 17 kts 70°
2026-05-07 18:52 50.04102 8.55365 360 ft 14 kts 70°
2026-05-07 18:52 50.04116 8.55492 354 ft 8 kts 122°
2026-05-07 18:52 50.04067 8.55530 353 ft 7 kts 160°
2026-05-07 18:53 50.04042 8.55545 354 ft 2 kts 159°